Weather History for Odessa, TX

Change the Weather History Date:

Monday, March 31, 2014

  Actual Average (KMAF) Record (KMAF)
Temperature  
Mean Temperature 72 °F 60 °F  
Max Temperature 86 °F 75 °F 97 °F (1946)
Min Temperature 57 °F 45 °F 16 °F (1931)
Degree Days  
Heating Degree Days 0 7  
Month to date heating degree days 308  
Since 1 July heating degree days 2544  
Cooling Degree Days 6 1  
Month to date cooling degree days 16  
Year to date cooling degree days 18  
Growing Degree Days 22 (Base 50)    
Moisture  
Dew Point 28 °F    
Average Humidity 29    
Maximum Humidity 72    
Minimum Humidity 5    
Precipitation  
Precipitation 0.00 in 0.02 in 0.74 in (1945)
Month to date precipitation 0.60  
Year to date precipitation 1.87  
Snow  
Snow 0.00 in - - ()
Month to date snowfall  
Since 1 July snowfall  
Snow Depth -    
Sea Level Pressure  
Sea Level Pressure 29.77 in    
Wind  
Wind Speed 15 mph (SW)    
Max Wind Speed 22 mph    
Max Gust Speed 30 mph    
Visibility 10 miles    
Events      
T = Trace of Precipitation, MM = Missing Value Source: NWS Daily Summary

Daily Weather History Graph

Daily Weather History Graph

Search for Another Location

Airport:

Trip Planner

Search our weather history database for the weather conditions in past years. The results will help you decide how hot, cold, wet, or windy it might be!

Date:

Astronomy

Mar. 31, 2014 Rise Set
Actual Time 7:39 AM CDT 8:08 PM CDT
Civil Twilight 7:14 AM CDT 8:33 PM CDT
Nautical Twilight 6:45 AM CDT 9:01 PM CDT
Astronomical Twilight 6:16 AM CDT 9:31 PM CDT
Moon 8:07 AM CDT (3/31) 9:23 PM CDT (3/31)
Length of Visible Light 13h 18m
Length of Day
12h 29m
New Moon, 1% of the Moon is Illuminated
Mar 31
New Moon
Apr 7
First Quarter
Apr 15
Full
Apr 22
Last Quarter
Apr 29
New

Hourly Weather History & Observations

Time (CDT) Temp. Dew Point Humidity Pressure Visibility Wind Dir Wind Speed Gust Speed Precip Events Conditions
12:53 AM 68.0 °F 44.1 °F 42% 29.72 in 10.0 mi South 21.9 mph 29.9 mph N/A   Clear
1:53 AM 68.0 °F 46.9 °F 47% 29.71 in 10.0 mi South 19.6 mph 28.8 mph N/A   Clear
2:53 AM 66.0 °F 48.0 °F 52% 29.73 in 10.0 mi South 18.4 mph 28.8 mph N/A   Clear
3:53 AM 64.9 °F 50.0 °F 58% 29.71 in 10.0 mi South 18.4 mph 27.6 mph N/A   Clear
4:53 AM 63.0 °F 50.0 °F 63% 29.72 in 10.0 mi SW 9.2 mph - N/A   Clear
5:53 AM 62.1 °F 50.0 °F 65% 29.73 in 10.0 mi South 16.1 mph 23.0 mph N/A   Clear
6:53 AM 60.1 °F 50.0 °F 69% 29.75 in 10.0 mi SSW 9.2 mph - N/A   Clear
7:53 AM 57.9 °F 48.9 °F 72% 29.78 in 10.0 mi SSW 5.8 mph - N/A   Clear
8:53 AM 61.0 °F 48.0 °F 62% 29.81 in 10.0 mi SSW 9.2 mph - N/A   Clear
9:53 AM 70.0 °F 41.0 °F 35% 29.82 in 10.0 mi WSW 10.4 mph - N/A   Clear
10:53 AM 75.0 °F 32.0 °F 21% 29.84 in 10.0 mi West 11.5 mph - N/A   Clear
11:53 AM 80.1 °F 21.0 °F 11% 29.83 in 10.0 mi WNW 12.7 mph 24.2 mph N/A   Clear
12:53 PM 82.0 °F 19.0 °F 10% 29.82 in 10.0 mi West 17.3 mph 25.3 mph N/A   Clear
1:53 PM 82.9 °F 16.0 °F 8% 29.80 in 10.0 mi West 12.7 mph 20.7 mph N/A   Clear
2:53 PM 84.0 °F 16.0 °F 8% 29.79 in 10.0 mi SW 12.7 mph 20.7 mph N/A   Clear
3:53 PM 84.9 °F 15.1 °F 7% 29.76 in 10.0 mi SSW 9.2 mph 19.6 mph N/A   Clear
4:53 PM 86.0 °F 10.0 °F 6% 29.75 in 10.0 mi WSW 17.3 mph 25.3 mph N/A   Clear
5:53 PM 84.9 °F 8.1 °F 5% 29.73 in 10.0 mi WSW 16.1 mph 26.5 mph N/A   Clear
6:53 PM 84.0 °F 10.0 °F 6% 29.74 in 10.0 mi WSW 18.4 mph - N/A   Clear
7:53 PM 80.1 °F 10.0 °F 7% 29.76 in 10.0 mi WSW 6.9 mph - N/A   Clear
8:53 PM 73.9 °F 9.0 °F 8% 29.78 in 10.0 mi WSW 5.8 mph - N/A   Clear
9:53 PM 70.0 °F 10.9 °F 10% 29.81 in 10.0 mi West 4.6 mph - N/A   Clear
10:53 PM 70.0 °F 10.9 °F 10% 29.81 in 10.0 mi West 3.5 mph - N/A   Clear
11:53 PM 66.9 °F 10.9 °F 11% 29.80 in 10.0 mi West 3.5 mph - N/A   Clear